Vinalhaven, Maine
Current Conditions -  °F | °C
As of 8:35 PM on Monday 24 Nov 2014 (Local Time) from KRKD Reporting Station
Overcast Overcast  
Wind Chill: 55°   Ceiling: 500
Heat Index: 55°   Visibility: 5mi
Dew Point: 55°   Wind: 17mph
Humidity: 100%   Direction: 200°SSW
Pressure: 29.57"   Gusts: 25mph
Location:  44.05°N, 68.82°W
Report Text: KRKD 250135Z AUTO 20015G22KT 5SM OVC005 13/13 A2957 RMK AO1
Loading
Personal Weather Stations






























Interactive Weather Map New forecast layout! Learn more

10-Day Weather Forecast

Advertisements
Track Severe Weather on mobile